This is the latest recevied weather packets stored in our database for station/object W4HIX-2. If no packets are shown the sender has not sent any weather packets the latest 10 day(s).
| Time | Temp. | Humidity | Pressure | Rain* | Wind** | Luminosity | Snow |
|---|---|---|---|---|---|---|---|
| 1777698636 | 24.44° C | 89% | 1011.6 hPa | 0 mm | - | - | - |
| 1777696816 | 24.44° C | 89% | 1011.9 hPa | 0 mm | - | - | - |
| 1777695616 | 24.44° C | 89% | 1011.8 hPa | 0 mm | - | - | - |
| 1777695016 | 24.44° C | 89% | 1011.8 hPa | 0 mm | - | - | - |
| 1777691416 | 24.44° C | 87% | 1011.6 hPa | 0 mm | - | - | - |
| 1777690216 | 25° C | 86% | 1011.9 hPa | 0 mm | - | - | - |
| 1777689016 | 25° C | 86% | 1012 hPa | 0 mm | - | - | - |
| 1777686016 | 25° C | 87% | 1011.6 hPa | 0 mm | - | - | - |
| 1777684837 | 25° C | 86% | 1011.5 hPa | 0 mm | - | - | - |
| 1777682416 | 25° C | 84% | 1010.9 hPa | 0 mm | - | - | - |
| 1777681256 | 25° C | 84% | 1010.9 hPa | 0 mm | - | - | - |
| 1777680616 | 25.56° C | 84% | 1010.8 hPa | 0 mm | - | - | - |
| 1777678216 | 25.56° C | 82% | 1010.5 hPa | 0 mm | - | - | - |
| 1777677016 | 26.11° C | 81% | 1010.5 hPa | 0 mm | - | - | - |
| 1777675216 | 26.11° C | 81% | 1010.1 hPa | 0 mm | - | - | - |
| 1777674017 | 26.11° C | 82% | 1010.2 hPa | 0 mm | - | - | - |
| 1777671016 | 26.11° C | 81% | 1010.2 hPa | 0 mm | - | - | - |
| 1777669816 | 26.67° C | 81% | 1010.3 hPa | 0 mm | - | - | - |
| 1777667436 | 26.67° C | 79% | 1010.7 hPa | 0 mm | - | - | - |
| 1777666215 | 27.78° C | 78% | 1010.8 hPa | 0 mm | - | - | - |
| 1777660215 | 27.78° C | 78% | 1012.5 hPa | 0 mm | - | - | - |
| 1777657815 | 27.78° C | 78% | 1012.5 hPa | 0 mm | - | - | - |
| 1777654815 | 27.22° C | 79% | 1013 hPa | 0 mm | - | - | - |
| 1777651815 | 27.22° C | 79% | 1013.2 hPa | 0 mm | - | - | - |
| 1777648235 | 27.22° C | 80% | 1013.4 hPa | 0 mm | - | - | - |
* Rain latest hour (hover to see other rain measurements)
** Current wind speed in m/s (hover to see current wind gust speed)